Windsor Locks, CT

3:25 PM EDT on July 28, 2017 (GMT -0400)
Bradley International

Weather History for KBDL - May, 2014

Change the Weather History Date:

Sunday, May 18, 2014

  Actual Average Record
Temperature  
Mean Temperature 57 °F 60 °F  
Max Temperature 70 °F 72 °F 96 °F (2017)
Min Temperature 44 °F 48 °F 31 °F (1984)
Degree Days  
Heating Degree Days 8 6  
Month to date heating degree days 102 144  
Since 1 July heating degree days 6299 5897  
Cooling Degree Days 0 1  
Month to date cooling degree days 20 11  
Year to date cooling degree days 21 17  
Growing Degree Days 7 (Base 50)    
Moisture  
Dew Point 34 °F    
Average Humidity 50    
Maximum Humidity 76    
Minimum Humidity 23    
Precipitation  
Precipitation 0.00 in 0.14 in 1.94 in (1922)
Month to date precipitation 2.89 2.30  
Year to date precipitation 20.44 15.76  
Snow  
Snow 0.00 in 0.00 in 0.00 in (2016)
Month to date snowfall 0.0 0.0  
Since 1 July snowfall 51.1 40.5  
Snow Depth 0.00 in    
Sea Level Pressure  
Sea Level Pressure 30.10 in    
Wind  
Wind Speed 10 mph (NNW)    
Max Wind Speed 25 mph    
Max Gust Speed 30 mph    
Visibility 10 miles    
Events      
T = Trace of Precipitation, MM = Missing Value Source: NWS Daily Summary

Daily Weather History Graph

Daily Weather History Graph

Search for Another Location

Airport or City:

Trip Planner

Search our weather history database for the weather conditions in past years. The results will help you decide how hot, cold, wet, or windy it might be!

Date:

Astronomy

May. 18, 2014 Rise Set
Actual Time 5:27 AM EDT 8:07 PM EDT
Civil Twilight 4:55 AM EDT 8:39 PM EDT
Nautical Twilight 4:15 AM EDT 9:20 PM EDT
Astronomical Twilight 3:29 AM EDT 10:06 PM EDT
Moon 11:52 PM EDT (5/18) 9:13 AM EDT (5/18)
Length of Visible Light 15h 44m
Length of Day
14h 39m
Waning Gibbous, 81% of the Moon is Illuminated
May 18
Waning Gibbous
May 21
Last Quarter
May 28
New
Jun 5
First Quarter
Jun 13
Full

Hourly Weather History & Observations

Time (EDT) Temp. Windchill Dew Point Humidity Pressure Visibility Wind Dir Wind Speed Gust Speed Precip Events Conditions
12:51 AM 52.0 °F - 37.9 °F 59% 30.09 in 10.0 mi North 4.6 mph - N/A   Mostly Cloudy
1:51 AM 50.0 °F - 37.0 °F 61% 30.09 in 10.0 mi North 5.8 mph - N/A   Scattered Clouds
2:51 AM 50.0 °F - 37.0 °F 61% 30.11 in 10.0 mi NNW 3.5 mph - N/A   Partly Cloudy
3:51 AM 46.9 °F - 37.0 °F 68% 30.12 in 10.0 mi North 4.6 mph - N/A   Mostly Cloudy
4:51 AM 44.6 °F 41.4 °F 37.4 °F 76% 30.13 in 10.0 mi NW 5.8 mph - N/A   Partly Cloudy
5:51 AM 46.9 °F - 36.0 °F 66% 30.14 in 10.0 mi WNW 3.5 mph - N/A   Partly Cloudy
6:51 AM 50.0 °F - 36.0 °F 59% 30.15 in 10.0 mi North 5.8 mph - N/A   Partly Cloudy
7:51 AM 54.0 °F - 36.0 °F 51% 30.15 in 10.0 mi North 8.1 mph - N/A   Partly Cloudy
8:51 AM 57.9 °F - 35.1 °F 42% 30.15 in 10.0 mi North 11.5 mph - N/A   Partly Cloudy
9:51 AM 60.1 °F - 37.9 °F 44% 30.14 in 10.0 mi NNE 10.4 mph - N/A   Partly Cloudy
10:51 AM 62.6 °F - 37.4 °F 39% 30.13 in 10.0 mi NW 10.4 mph - N/A   Partly Cloudy
11:51 AM 64.9 °F - 33.1 °F 31% 30.11 in 10.0 mi North 9.2 mph - N/A   Partly Cloudy
12:51 PM 66.9 °F - 35.1 °F 31% 30.09 in 10.0 mi NNW 10.4 mph 20.7 mph N/A   Scattered Clouds
1:51 PM 66.9 °F - 30.9 °F 26% 30.07 in 10.0 mi WNW 12.7 mph - N/A   Scattered Clouds
2:51 PM 69.1 °F - 30.0 °F 23% 30.06 in 10.0 mi NW 10.4 mph 19.6 mph N/A   Scattered Clouds
3:51 PM 64.9 °F - 28.9 °F 26% 30.04 in 10.0 mi NNW 10.4 mph 18.4 mph N/A   Scattered Clouds
4:51 PM 66.9 °F - 28.0 °F 23% 30.05 in 10.0 mi NNW 10.4 mph - N/A   Scattered Clouds
5:51 PM 66.9 °F - 30.0 °F 25% 30.05 in 10.0 mi NW 16.1 mph - N/A   Partly Cloudy
6:51 PM 64.0 °F - 33.1 °F 31% 30.06 in 10.0 mi WNW 18.4 mph 29.9 mph N/A   Partly Cloudy
7:51 PM 60.1 °F - 32.0 °F 35% 30.08 in 10.0 mi NW 15.0 mph 21.9 mph N/A   Partly Cloudy
8:51 PM 57.9 °F - 32.0 °F 37% 30.09 in 10.0 mi NW 12.7 mph - N/A   Scattered Clouds
9:51 PM 57.0 °F - 33.1 °F 40% 30.10 in 10.0 mi NNW 11.5 mph - N/A   Partly Cloudy
10:51 PM 55.4 °F - 33.8 °F 44% 30.10 in 10.0 mi NNW 10.4 mph - N/A   Clear
11:51 PM 55.0 °F - 32.0 °F 42% 30.11 in 10.0 mi NW 10.4 mph - N/A   Partly Cloudy